Regional Weather Roundup
Issued by NWS San Angelo, TX

Home | Current Version | Previous Version | Text Only | Print | Product List | Glossary On
Versions: 1 2 3 4 5 6 7 8 9 10 11 12 13 14 15 16 17 18 19 20 21 22 23 24 25 26 27 28 29 30 31 32 33 34 35 36 37 38 39 40 41 42 43 44 45 46 47 48 49 50
000
ASUS44 KSJT 070410
RWRSJT
WEST CENTRAL TEXAS REGIONAL WEATHER ROUNDUP
NATIONAL WEATHER SERVICE SAN ANGELO TX
1100 PM CDT WED MAY 06 2015

NOTE: "FAIR" INDICATES FEW OR NO CLOUDS BELOW 12,000 FEET WITH NO
SIGNIFICANT WEATHER AND/OR OBSTRUCTIONS TO VISIBILITY.

TXZ049-054-064>066-071>073-076>078-098-099-113-114-127-128-139-140-
154-155-168>170-070500
...LOCATIONS ACROSS WEST CENTRAL TEXAS...

CITY           SKY/WX    TMP DP  RH WIND       PRES   REMARKS
SAN ANGELO     CLOUDY    75  64  68 S13G23    29.84R
ABILENE        CLEAR     75  63  66 SE16      29.82R
DYESS AFB      PTCLDY    75  64  68 S17       29.80R
JUNCTION       CLOUDY    75  66  73 SE15      29.89R
SWEETWATER     PTCLDY    73  62  69 S10       29.85R
BROWNWOOD      CLOUDY    75  64  69 SE14G21   29.85R
COLEMAN        CLOUDY    76  65  70 S15G21    29.85R
SONORA         PTCLDY    73  66  78 S10       29.91S
OZONA          FAIR      70  63  78 S13G21    29.88S
BRADY          CLEAR     73  66  78 SE14      29.88R
$$

TEXAS PANHANDLE/OKLAHOMA PANHANDLE

CITY           SKY/WX    TMP DP  RH WIND       PRES   REMARKS
AMARILLO       CLEAR     62  49  62 S9        29.80R
BORGER         CLEAR     70  46  42 S10       29.76R
CANADIAN       CLEAR     69  55  60 S18       29.74R
DALHART        PTCLDY    59  47  64 SW9       29.79R
DUMAS          PTCLDY    56  48  74 S7        29.78R
GUYMON         NOT AVBL
HEREFORD       CLEAR     59  49  69 MISG      29.81R
PAMPA          CLEAR     60  50  69 S10       29.80R
PERRYTON       CLEAR     63  54  71 S10       29.74R
$$

SOUTHERN PANHANDLE/SOUTH PLAINS/ROLLING PLAINS

CITY           SKY/WX    TMP DP  RH WIND       PRES   REMARKS
LUBBOCK        PTCLDY    67  51  56 S16       29.82R
SNYDER         CLEAR     72  63  71 S14       29.82S
CHILDRESS      MOCLDY    65  58  78 S25G32    29.82R THUNDER
SEMINOLE       CLEAR     68  59  73 S10       29.84R
$$

PERMIAN BASIN

CITY           SKY/WX    TMP DP  RH WIND       PRES   REMARKS
MIDLAND        CLEAR     70  60  70 S15       29.82R
ODESSA         CLEAR     70  58  65 S16       29.83R
WINK           CLEAR     73  59  61 SE23G31   29.79R
$$

FAR WEST/SOUTHWEST MOUNTAINS/TRANS PECOS

CITY           SKY/WX    TMP DP  RH WIND       PRES   REMARKS
ALPINE         CLEAR     66  57  74 SE10      29.92S
DRYDEN           N/A     72  66  81 E12       29.82R
EL PASO        PTCLDY    78  20  11 W9        29.81R
FORT STOCKTON  CLEAR     70  62  76 SE25G36   29.81R
GUADALUPE PASS CLEAR     71  22  15 W3        29.92R
MARFA          PTCLDY    61  50  67 NE6       29.90R
PECOS          CLEAR     74  61  64 E20G25    29.77S
$$

DALLAS/FORT WORTH METROPLEX

CITY           SKY/WX    TMP DP  RH WIND       PRES   REMARKS
DFW AIRPORT    CLOUDY    74  69  85 SE16G23   29.88R
FTW MEACHAM    CLOUDY    76  70  82 SE20G25   29.86S
DAL-EXECUTIVE  MOCLDY    74  68  81 SE17      29.89R
GRAND PRAIRIE  MOCLDY    74  69  84 SE14      29.90R
ADDISON        CLOUDY    75  68  78 SE15      29.91S
MESQUITE       CLOUDY    73  68  85 SE9       29.91R
LANCASTER      MOCLDY    73  67  82 SE10      29.91R
$$

NORTH CENTRAL TEXAS

CITY           SKY/WX    TMP DP  RH WIND       PRES   REMARKS
SHRMAN/DENISON CLOUDY    74  70  86 SE14G21   29.91R
GAINESVILLE    CLOUDY    73  67  83 SE12      29.91R
BRIDGEPORT     CLOUDY    74  69  84 E8G16     29.88R
DENTON         CLOUDY    75  68  78 SE17      29.88S
WAXAHACHIE     CLOUDY    73  69  87 SE8       29.91R
GRANBURY         N/A     76  70  80 SE13G18   29.86F
$$

WESTERN NORTH TEXAS

CITY           SKY/WX    TMP DP  RH WIND       PRES   REMARKS
WICHITA FALLS  TSTM      66  59  78 S40G48    29.82R
VERNON         CLOUDY    71  61  70 S13       29.78S
BRECKENRIDGE   MOCLDY    78  64  63 S17G23    29.80S
COMANCHE       CLOUDY    74  67  78 SE12G20   29.85S
$$

CENTRAL AND SOUTH CENTRAL TEXAS

CITY           SKY/WX    TMP DP  RH WIND       PRES   REMARKS
AUSTIN/BERGSTM CLEAR     73  68  84 S12       29.90R
WACO           MOCLDY    74  70  87 SE13      29.89R
HILLSBORO      PTCLDY    74  68  81 SE14G22   29.90R
TEMPLE         PTCLDY    73  64  73 SE10      29.90R
KILLEEN-GRAY   PTCLDY    73  67  83 SE14      29.89R
FORT HOOD      PTCLDY    74  67  80 SE15G22   29.89R
GEORGETOWN     CLEAR     73  68  83 S9        29.90R
LAGO VISTA     CLOUDY    73  68  82 SE10G18   29.92R
SAN MARCOS     PTCLDY    72  66  83 SE9       29.90S
NEW BRAUNFELS  MOCLDY    74  69  85 SE14      29.88R
RANDOLPH AFB   CLOUDY    73  68  83 SE14      29.89R
SAN ANTONIO    CLOUDY    74  67  78 SE13      29.88R
STINSON        CLOUDY    74  68  81 SE13      29.86R
PLEASANTON     NOT AVBL
LA GRANGE      PTCLDY    75  72  88 SE7       29.91R
GIDDINGS       MOCLDY    73  68  83 S6        29.95R
$$

EAST TEXAS

CITY           SKY/WX    TMP DP  RH WIND       PRES   REMARKS
PARIS          CLOUDY    72  66  83 SE9       29.95R
CLARKSVILLE    NOT AVBL
TYLER          PTCLDY    73  68  84 SE9       29.95R
LONGVIEW       CLOUDY    73  67  81 S13       29.96R
PALESTINE      CLOUDY    73  69  87 SE9       29.95S
NACOGDOCHES      N/A     70  66  88 SE5       29.98R
$$

TEXAS HILL COUNTRY AND EDWARDS PLATEAU

CITY           SKY/WX    TMP DP  RH WIND       PRES   REMARKS
LLANO          MOCLDY    75  68  78 SE9       29.90F
HORSESHOE BAY  FAIR      73  67  81 SE9       29.89R
KERRVILLE      CLOUDY    72  67  84 SE13      29.90S
FREDERICKSBRG  PTCLDY    69  64  82 SE6       29.90F
ROCKSPRINGS    CLOUDY    72  66  83 SE15      29.93R
HONDO          CLOUDY    75  67  76 SE17G24   29.88R
UVALDE         MOCLDY    74  68  80 SE14      29.84R
DEL RIO        MOCLDY    76  69  79 SE10      29.82R
$$

SOUTHEAST TEXAS

CITY           SKY/WX    TMP DP  RH WIND       PRES   REMARKS
COLLEGE STN    MOCLDY    74  69  85 SE10      29.92R
CALDWELL       CLEAR     73  72  94 SE12      29.95R
CROCKETT       NOT AVBL
BRENHAM        PTCLDY    75  71  87 SE8       29.93R
HUNTSVILLE     MOCLDY    74  69  85 SE6       29.94S
CONROE         CLOUDY    73  69  87 SE10      29.95S
HOUSTON BUSH   CLOUDY    75  71  87 SE14      29.94R
HOUSTON HOBBY  CLOUDY    76  71  85 SE13G18   29.94R
PERLAND        CLOUDY    77  72  84 SE13      29.96R
WHARTON        MOCLDY    74  71  91 SE9       29.93R
$$

THE UPPER TEXAS COAST

CITY           SKY/WX    TMP DP  RH WIND       PRES   REMARKS
ORANGE         CLEAR     74  69  83 SE7       30.00R
PORT ARTHUR    CLOUDY    75  70  84 SE14      29.97R
GALVESTON      CLOUDY    76  73  91 SE20G25   29.96R
ANGLETON       CLOUDY    74  73  97 SE12      29.93R
BAY CITY       CLOUDY    75  75  98 SE12      29.92R
$$

TEXAS COASTAL BEND, RIO GRANDE PLAINS DEEP SOUTH TEXAS

CITY           SKY/WX    TMP DP  RH WIND       PRES   REMARKS
VICTORIA       NOT AVBL
BEEVILLE       CLOUDY    74  74 100 SE6       29.89R
ROCKPORT       CLOUDY    78  73  84 SE16G24   29.88R
PORT ARANSAS   CLOUDY    76  74  95 SE12G20   29.88R
PORT LAVACA    CLOUDY    75  73  94 SE13      29.90R
CORPUS CHRISTI MOCLDY    77  72  84 SE14      29.88R
KINGSVILLE NAS MOCLDY    77  75  93 SE10      29.86R
COTULLA        MOCLDY    76  69  79 SE13      29.85R
LAREDO         CLEAR     76  71  84 SE10      29.86R
BROWNSVILLE    CLOUDY    79  75  87 SE13      29.87R
PORT ISABEL    CLOUDY    78  74  87 SE13      29.86R
HEBBRONVILLE     N/A     74  72  91 E12       29.87R
MCALLEN        CLOUDY    79  73  82 SE10      29.87R
WESLACO        CLOUDY    77  72  84 SE6       29.86S
FALFURRIAS     PTCLDY    76  72  88 SE10      29.86R
EDINBURG       CLOUDY    77  71  82 SE7       29.86R
$$



USA.gov is the U.S. government's official web portal to all federal, state and local government web resources and services.